Regional Weather Roundup
Issued by NWS State College, PA

Home | Current Version | Previous Version | Text Only | Print | Product List | Glossary Off
Versions: 1 2 3 4 5 6 7 8 9 10 11 12 13 14 15 16 17 18 19 20 21 22 23 24 25 26 27 28 29 30 31 32 33 34 35 36 37 38 39 40 41 42 43 44 45 46 47 48 49 50

611
ASUS41 KCTP 241310
RWRCTP

REGIONAL WEATHER ROUNDUP
NATIONAL WEATHER SERVICE STATE COLLEGE PA
800 AM EST SAT FEB 24 2018

Note: "fair" indicates few or no clouds below 12,000 feet with no
significant weather and/or obstructions to visibility.

* = STATION THAT DOES NOT REPORT PRECIPITATION /E.G. RAIN...SNOW...ETC/
    THUNDER OR FOG.

PAZ002>004-007>009-013>016-020>023-029>032-241400-
WESTERN PENNSYLVANIA

CITY           SKY/WX    TMP DP  RH WIND       PRES   REMARKS
ERIE           CLOUDY    38  32  79 NE7       30.22F
MEADVILLE      LGT RAIN  37  36  96 NE8       30.18R FOG
FRANKLIN*      LGT RAIN  40  38  93 SE3       30.20R FOG
NEW CASTLE     CLOUDY    43  42  97 NE3       30.21S
BEAVER COUNTY  NOT AVBL
BUTLER*        LGT RAIN  44  40  85 NE6       30.19F
PITTSBURGH INT LGT RAIN  46  43  89 NE9       30.17F FOG
PITTSBURGH     LGT RAIN  46  43  89 N8        30.16R
INDIANA*       CLOUDY    46  45  93 CALM      30.21F FOG
LATROBE        CLOUDY    48  48 100 N7        30.17F
WASHINGTON CO* LGT RAIN  47  46  97 NE9       30.18F FOG
$$

PAZ004>006-010>012-017>019-024>028-033>037-041-042-045-046-049>053-241400-
CENTRAL PENNSYLVANIA

CITY           SKY/WX    TMP DP  RH WIND       PRES   REMARKS
BRADFORD       CLOUDY    40  37  89 CALM      30.16S
DUBOIS         CLOUDY    43  38  82 W3        30.19R
CLEARFIELD     CLOUDY    44  41  89 N3        30.18R
JOHNSTOWN      LGT RAIN  47  45  93 N8        30.14R VSB 1/4
ALTOONA        RAIN      43  42  97 CALM      30.18R FOG
STATE COLLEGE  FOG       39  39 100 CALM      30.18R VSB 1/8
WILLIAMSPORT   FOG       41  41 100 W5        30.19S VSB 1
SELINSGROVE    FOG       42  41  96 N3        30.20S VSB 1/4
FT INDIANTOWN  FOG       41  41 100 CALM      30.18S VSB 1/4
CAPITAL CITY   CLOUDY    45  44  97 CALM      30.17S FOG
HARRISBURG     FOG       44  42  93 NW6       30.17S VSB 1/2
YORK           CLOUDY    44  44 100 E5        30.17S FOG
$$

PAZ038>040-043-044-047-048-054-055-060>062-067>071-241400-
EASTERN PENNSYLVANIA

CITY           SKY/WX    TMP DP  RH WIND       PRES   REMARKS
SCRANTON       FOG       40  40 100 VRB3      30.17F VSB<1/4
MOUNT POCONO   CLOUDY    41  41 100 NW12      30.15R
ALLENTOWN      FAIR      42  39  89 SW6       30.18S FOG
QUAKERTOWN*    CLOUDY    43  43 100 CALM      30.19R FOG
READING        CLOUDY    43  43 100 CALM      30.17F FOG
LANCASTER      CLOUDY    44  43  96 CALM      30.17S FOG
COATESVILLE    FOG       43  43 100 CALM      30.18S VSB 1/4
POTTSTOWN      FOG       42  42 100 N6        30.19R VSB 1/4
BLUE BELL      CLOUDY    43  43 100 CALM      30.20S
DOYLESTOWN     CLOUDY    43  42  97 CALM      30.18R
WILLOW GROVE   NOT AVBL
NORTH PHILA    CLOUDY    47  43  86 N6        30.20S FOG
PHILADELPHIA   PTSUNNY   45  43  93 S3        30.20R FOG
$$




USA.gov is the U.S. government's official web portal to all federal, state and local government web resources and services.